Location: Zagreb
(45.8000°N, 16.0000°E)
Time: 00:48:00
(UTC+01:00)

Tiros 1 despin weight - All Passes

Search period start: 26 January 2020 00:00
Search period end: 05 February 2020 00:00
Orbit: 594 x 642 km, 48.2° (Epoch: 25 January)

Date Brightness Start Highest point End Pass type
(mag) Time Alt. Az. Time Alt. Az. Time Alt. Az.
26 Jan - 09:20:10 10° SSE 09:21:30 11° SE 09:22:51 10° ESE daylight
26 Jan - 10:57:54 10° SW 11:02:13 47° SSE 11:06:37 10° ENE daylight
26 Jan - 12:39:10 10° W 12:43:43 73° NNW 12:48:20 10° ENE daylight
26 Jan - 14:20:58 10° WNW 14:25:34 69° N 14:30:13 10° E daylight
26 Jan - 16:02:37 10° WNW 16:07:09 55° SSW 16:11:43 10° SE daylight
26 Jan - 17:45:28 10° WSW 17:48:02 15° SW 17:50:36 10° SSW visible
27 Jan - 09:34:18 10° S 09:37:38 21° SE 09:41:01 10° E daylight
27 Jan - 11:14:11 10° WSW 11:18:40 73° SSE 11:23:16 10° ENE daylight
27 Jan - 12:55:51 10° W 13:00:22 65° N 13:04:59 10° E daylight
27 Jan - 14:37:34 10° WNW 14:42:12 85° NNE 14:46:52 10° ESE daylight
27 Jan - 16:19:20 10° W 16:23:32 34° SW 16:27:45 10° SSE daylight
28 Jan - 09:49:49 10° SSW 09:53:54 35° SE 09:58:02 10° E daylight
28 Jan - 11:30:43 10° WSW 11:35:14 83° NNW 11:39:51 10° ENE daylight
28 Jan - 13:12:30 10° WNW 13:17:03 65° N 13:21:40 10° E daylight
28 Jan - 14:54:09 10° WNW 14:58:45 70° SSW 15:03:23 10° ESE daylight
28 Jan - 16:36:23 10° W 16:39:48 20° SW 16:43:14 10° S daylight
29 Jan - 08:26:58 10° S 08:29:26 15° SE 08:31:56 10° E daylight
29 Jan - 10:05:54 10° SW 10:10:17 57° SSE 10:14:46 10° ENE daylight
29 Jan - 11:47:21 10° W 11:51:52 68° N 11:56:28 10° ENE daylight
29 Jan - 13:29:08 10° WNW 13:33:43 75° NNE 13:38:21 10° E daylight
29 Jan - 15:10:48 10° WNW 15:15:12 45° SSW 15:19:38 10° SE daylight
29 Jan - 16:54:40 10° WSW 16:55:56 11° SW 16:57:13 10° SSW daylight
30 Jan - 08:41:56 10° SSW 08:45:37 26° SE 08:49:22 10° E daylight
30 Jan - 10:22:18 10° WSW 10:26:47 84° SSE 10:31:22 10° ENE daylight
30 Jan - 12:04:02 10° W 12:08:33 64° N 12:13:07 10° E daylight
30 Jan - 13:45:43 10° WNW 13:50:19 85° SSW 13:54:58 10° ESE daylight
30 Jan - 15:27:37 10° W 15:31:32 28° SW 15:35:28 10° SSE daylight
31 Jan - 08:57:43 10° SW 09:01:56 43° SSE 09:06:14 10° ENE daylight
31 Jan - 10:38:53 10° W 10:43:23 75° NNW 10:47:58 10° ENE daylight
31 Jan - 12:20:41 10° WNW 12:25:13 68° N 12:29:49 10° E daylight
31 Jan - 14:02:19 10° WNW 14:06:49 59° SSW 14:11:23 10° SE daylight
31 Jan - 15:44:57 10° W 15:47:45 16° SW 15:50:33 10° S daylight
01 Feb - 07:34:17 10° S 07:37:23 19° SE 07:40:32 10° E daylight
01 Feb - 09:13:57 10° WSW 09:18:22 68° SSE 09:22:53 10° ENE daylight
01 Feb - 10:55:33 10° W 11:00:02 65° N 11:04:35 10° ENE daylight
01 Feb - 12:37:17 10° WNW 12:41:51 82° NNE 12:46:29 10° ESE daylight
01 Feb - 14:19:00 10° W 14:23:13 37° SW 14:27:29 10° SSE daylight
02 Feb - 07:49:41 10° SSW 07:53:38 32° SE 07:57:38 10° E daylight
02 Feb - 09:30:26 10° WSW 09:34:55 86° NNW 09:39:28 10° ENE daylight
02 Feb - 11:12:14 10° W 11:16:43 64° N 11:21:16 10° E daylight
02 Feb - 12:53:52 10° WNW 12:58:25 74° SSW 13:03:01 10° ESE daylight
02 Feb - 14:35:59 10° W 14:39:31 22° SW 14:43:04 10° S daylight
03 Feb - 06:27:09 10° SSE 06:29:13 13° SE 06:31:17 10° ESE visible
03 Feb - 08:05:41 10° SW 08:10:00 53° SSE 08:14:23 10° ENE daylight
03 Feb - 09:47:05 10° W 09:51:32 69° N 09:56:05 10° ENE daylight
03 Feb - 11:28:51 10° WNW 11:33:22 72° N 11:37:58 10° E daylight
03 Feb - 13:10:29 10° WNW 13:14:53 48° SSW 13:19:19 10° SE daylight
03 Feb - 14:53:53 10° WSW 14:55:40 12° SW 14:57:28 10° SSW daylight
04 Feb - 06:41:50 10° SSW 06:45:22 24° SE 06:48:56 10° E visible
04 Feb - 08:22:03 10° WSW 08:26:29 80° SSE 08:31:00 10° ENE daylight
04 Feb - 10:03:45 10° W 10:08:12 63° N 10:12:43 10° E daylight
04 Feb - 11:45:26 10° WNW 11:49:58 89° SW 11:54:35 10° ESE daylight
04 Feb - 13:27:16 10° W 13:31:14 30° SW 13:35:14 10° SSE daylight
